Location: Berkeley
(37.8716°N, 122.2727°W)
Time: 13:23:41
(UTC-07:00)

Envisat - Pass Details

Date: 23 February 2019
Orbit: 764 x 766 km, 98.2° (Epoch: 22 March)

Event Time Altitude Azimuth Distance (km) Brightness Sun altitude
Rises 18:58:04 0° 170° (S) 3,217 6.2 -12.9°
Reaches altitude 10° 19:00:22 10° 172° (S) 2,295 5.4 -13.3°
Maximum altitude 19:05:25 74° 258° (WSW) 797 3.2 -14.3°
Drops below altitude 10° 19:10:31 10° 344° (NNW) 2,309 5.7 -15.3°
Sets 19:12:50 0° 346° (NNW) 3,239 6.4 -15.8°
